Staples, MN

8:39 PM CDT on May 25, 2017 (GMT -0500)
Staples Municipal

Weather History for KSAZ - December, 2012

Change the Weather History Date:

Sunday, December 2, 2012

  Actual Average Record
Temperature  
Mean Temperature 34 °F -  
Max Temperature 41 °F 29 °F 53 °F (1998)
Min Temperature 28 °F 15 °F -7 °F (2000)
Degree Days  
Heating Degree Days 30    
Moisture  
Dew Point 32 °F    
Average Humidity 97    
Maximum Humidity 100    
Minimum Humidity 81    
Precipitation  
Precipitation 0.00 in - - ()
Sea Level Pressure  
Sea Level Pressure 29.82 in    
Wind  
Wind Speed 5 mph (SSE)    
Max Wind Speed 17 mph    
Max Gust Speed 25 mph    
Visibility 2 miles    
Events Fog    
Averages and records for this station are not official NWS values.
T = Trace of Precipitation, MM = Missing Value Source: NWS Daily Summary

Daily Weather History Graph

Daily Weather History Graph

Search for Another Location

Airport or City:

Trip Planner

Search our weather history database for the weather conditions in past years. The results will help you decide how hot, cold, wet, or windy it might be!

Date:

Astronomy

Dec. 02, 2012 Rise Set
Actual Time 7:43 AM CST 4:33 PM CST
Civil Twilight 7:09 AM CST 5:08 PM CST
Nautical Twilight 6:31 AM CST 5:45 PM CST
Astronomical Twilight 5:55 AM CST 6:22 PM CST
Moon 8:28 PM CST (12/2) 10:29 AM CST (12/2)
Length of Visible Light 9h 58m
Length of Day
8h 49m
Waning Gibbous, 85% of the Moon is Illuminated
Dec 2
Waning Gibbous
Dec 6
Last Quarter
Dec 13
New
Dec 19
First Quarter
Dec 28
Full

Hourly Weather History & Observations

Time (CST) Temp. Windchill Dew Point Humidity Pressure Visibility Wind Dir Wind Speed Gust Speed Precip Events Conditions
12:13 AM 30.2 °F - 28.4 °F 93% 29.85 in 2.5 mi Calm Calm - N/A   Overcast
12:34 AM 28.4 °F - 28.4 °F 100% 29.85 in 2.5 mi Calm Calm - N/A   Overcast
12:54 AM 30.2 °F - 30.2 °F 100% 29.85 in 3.0 mi Calm Calm - N/A   Overcast
1:13 AM 30.2 °F - 30.2 °F 100% 29.85 in 3.0 mi Calm Calm - N/A   Overcast
1:53 AM 30.2 °F 23.4 °F 30.2 °F 100% 29.88 in 2.5 mi WNW 6.9 mph - N/A   Overcast
2:13 AM 30.2 °F 26.7 °F 30.2 °F 100% 29.87 in 2.0 mi West 3.5 mph - N/A   Overcast
2:34 AM 30.2 °F - 30.2 °F 100% 29.87 in 1.8 mi Calm Calm - N/A   Overcast
2:53 AM 30.2 °F 23.4 °F 30.2 °F 100% 29.88 in 1.8 mi WNW 6.9 mph - N/A   Overcast
3:13 AM 30.2 °F 26.7 °F 30.2 °F 100% 29.89 in 1.8 mi West 3.5 mph - N/A   Overcast
3:34 AM 30.2 °F - 30.2 °F 100% 29.89 in 1.0 mi Calm Calm - N/A   Overcast
3:53 AM 30.2 °F - 30.2 °F 100% 29.89 in 0.8 mi Calm Calm - N/A   Overcast
4:14 AM 30.2 °F - 30.2 °F 100% 29.89 in 0.5 mi Calm Calm - N/A Fog Light Freezing Fog
4:33 AM 30.2 °F - 30.2 °F 100% 29.89 in 0.2 mi Calm Calm - N/A Fog Light Freezing Fog
4:53 AM 30.2 °F - 30.2 °F 100% 29.89 in 0.2 mi Calm Calm - N/A Fog Light Freezing Fog
5:13 AM 28.4 °F - 28.4 °F 100% 29.89 in 0.2 mi Calm Calm - N/A Fog Light Freezing Fog
5:33 AM 30.2 °F - 30.2 °F 100% 29.89 in 0.2 mi Calm Calm - N/A Fog Light Freezing Fog
5:54 AM 30.2 °F - 30.2 °F 100% 29.91 in 0.2 mi Calm Calm - N/A Fog Light Freezing Fog
6:13 AM 28.4 °F - 28.4 °F 100% 29.91 in 0.2 mi Calm Calm - N/A Fog Light Freezing Fog
6:33 AM 28.4 °F - 28.4 °F 100% 29.92 in 0.2 mi Calm Calm - N/A Fog Light Freezing Fog
6:54 AM 28.4 °F - 28.4 °F 100% 29.92 in 0.2 mi Calm Calm - N/A Fog Light Freezing Fog
7:13 AM 28.4 °F - 28.4 °F 100% 29.92 in 0.2 mi Calm Calm - N/A Fog Light Freezing Fog
7:33 AM 28.4 °F 22.2 °F 28.4 °F 100% 29.91 in 0.2 mi SSE 5.8 mph - N/A Fog Light Freezing Fog
7:54 AM 28.4 °F 24.6 °F 28.4 °F 100% 29.91 in 0.2 mi SE 3.5 mph - N/A Fog Light Freezing Fog
8:13 AM 28.4 °F 24.6 °F 28.4 °F 100% 29.92 in 0.2 mi SE 3.5 mph - N/A Fog Light Freezing Fog
8:33 AM 28.4 °F 23.3 °F 28.4 °F 100% 29.92 in 0.2 mi SE 4.6 mph - N/A Fog Light Freezing Fog
8:54 AM 28.4 °F 24.6 °F 28.4 °F 100% 29.92 in 0.2 mi SE 3.5 mph - N/A Fog Light Freezing Fog
9:13 AM 28.4 °F 21.2 °F 28.4 °F 100% 29.91 in 0.2 mi SSE 6.9 mph - N/A Fog Light Freezing Fog
9:33 AM 28.4 °F 24.6 °F 28.4 °F 100% 29.90 in 0.2 mi SSE 3.5 mph - N/A Fog Light Freezing Fog
9:54 AM 28.4 °F 20.4 °F 28.4 °F 100% 29.91 in 0.2 mi SSE 8.1 mph - N/A Fog Light Freezing Fog
10:13 AM 30.2 °F 23.4 °F 30.2 °F 100% 29.91 in 0.2 mi SSE 6.9 mph - N/A Fog Light Freezing Fog
10:33 AM 30.2 °F 22.6 °F 30.2 °F 100% 29.91 in 0.2 mi SSE 8.1 mph - N/A Fog Light Freezing Fog
10:54 AM 30.2 °F 21.9 °F 30.2 °F 100% 29.91 in 0.2 mi South 9.2 mph - N/A Fog Light Freezing Fog
11:13 AM 30.2 °F 22.6 °F 30.2 °F 100% 29.90 in 0.5 mi SSE 8.1 mph - N/A Fog Light Freezing Fog
11:33 AM 30.2 °F 22.6 °F 30.2 °F 100% 29.91 in 0.8 mi South 8.1 mph - N/A   Overcast
11:54 AM 30.2 °F 23.4 °F 30.2 °F 100% 29.89 in 0.8 mi South 6.9 mph - N/A   Overcast
12:13 PM 30.2 °F 24.3 °F 30.2 °F 100% 29.88 in 1.0 mi SE 5.8 mph - N/A   Overcast
12:34 PM 32.0 °F 26.4 °F 32.0 °F 100% 29.86 in 1.2 mi SE 5.8 mph - N/A   Overcast
12:53 PM 32.0 °F - 32.0 °F 100% 29.86 in 1.8 mi Calm Calm - N/A   Overcast
1:14 PM 33.8 °F 28.6 °F 33.8 °F 100% 29.86 in 2.5 mi ESE 5.8 mph - N/A   Overcast
1:34 PM 33.8 °F 27.0 °F 33.8 °F 100% 29.85 in 2.5 mi SE 8.1 mph - N/A   Overcast
1:53 PM 35.6 °F 29.9 °F 33.8 °F 93% 29.84 in 4.0 mi SE 6.9 mph - N/A   Mostly Cloudy
2:14 PM 35.6 °F 30.7 °F 33.8 °F 93% 29.83 in 4.0 mi SE 5.8 mph - N/A   Scattered Clouds
2:34 PM 35.6 °F 29.2 °F 33.8 °F 93% 29.81 in 3.0 mi SE 8.1 mph - N/A   Mostly Cloudy
2:53 PM 35.6 °F 28.0 °F 33.8 °F 93% 29.81 in 3.0 mi SE 10.4 mph - N/A   Overcast
3:14 PM 35.6 °F 28.6 °F 33.8 °F 93% 29.80 in 2.5 mi SE 9.2 mph - N/A   Overcast
3:34 PM 35.6 °F 29.2 °F 33.8 °F 93% 29.79 in 2.0 mi SE 8.1 mph - N/A   Overcast
3:53 PM 35.6 °F 29.2 °F 33.8 °F 93% 29.78 in 1.8 mi SE 8.1 mph 18.4 mph N/A   Overcast
4:14 PM 33.8 °F 25.3 °F 33.8 °F 100% 29.78 in 1.0 mi SE 11.5 mph - N/A   Overcast
4:34 PM 33.8 °F 25.8 °F 33.8 °F 100% 29.76 in 1.8 mi SE 10.4 mph 17.3 mph N/A   Overcast
4:53 PM 33.8 °F 26.4 °F 33.8 °F 100% 29.76 in 1.8 mi SE 9.2 mph - N/A   Overcast
5:14 PM 33.8 °F 26.4 °F 33.8 °F 100% 29.74 in 2.0 mi SE 9.2 mph - N/A   Overcast
5:34 PM 33.8 °F 26.4 °F 33.8 °F 100% 29.74 in 2.0 mi SSE 9.2 mph - N/A   Overcast
5:52 PM 33.8 °F 26.4 °F 33.8 °F 100% 29.75 in 2.5 mi SSE 9.2 mph - N/A   Overcast
6:13 PM 33.8 °F 25.3 °F 33.8 °F 100% 29.74 in 2.5 mi SSE 11.5 mph - N/A   Overcast
6:33 PM 33.8 °F 25.8 °F 33.8 °F 100% 29.73 in 2.5 mi SE 10.4 mph 16.1 mph N/A   Overcast
6:54 PM 33.8 °F 25.8 °F 33.8 °F 100% 29.72 in 2.5 mi SSE 10.4 mph - N/A   Overcast
7:13 PM 35.6 °F 29.2 °F 33.8 °F 93% 29.72 in 2.5 mi SE 8.1 mph 16.1 mph N/A   Mostly Cloudy
7:33 PM 35.6 °F 29.2 °F 33.8 °F 93% 29.72 in 3.0 mi SE 8.1 mph - N/A   Scattered Clouds
7:54 PM 35.6 °F 28.0 °F 33.8 °F 93% 29.69 in 3.0 mi SE 10.4 mph 16.1 mph N/A   Clear
8:13 PM 35.6 °F 28.6 °F 35.6 °F 100% 29.70 in 4.0 mi SSE 9.2 mph - N/A   Clear
8:34 PM 37.4 °F 29.3 °F 35.6 °F 93% 29.68 in 4.0 mi SSE 12.7 mph 19.6 mph N/A   Clear
8:53 PM 37.4 °F 28.9 °F 35.6 °F 93% 29.68 in 4.0 mi SSE 13.8 mph 19.6 mph N/A   Clear
9:13 PM 37.4 °F 28.9 °F 35.6 °F 93% 29.67 in 4.0 mi SSE 13.8 mph 18.4 mph N/A   Clear
9:34 PM 37.4 °F 28.2 °F 35.6 °F 93% 29.65 in 5.0 mi SSE 16.1 mph 21.9 mph N/A   Clear
9:53 PM 37.4 °F 28.5 °F 35.6 °F 93% 29.65 in 5.0 mi SSE 15.0 mph 25.3 mph N/A   Clear
10:13 PM 39.2 °F 30.5 °F 35.6 °F 87% 29.64 in 5.0 mi SSE 16.1 mph 24.2 mph N/A   Clear
10:34 PM 39.2 °F 30.5 °F 35.6 °F 87% 29.63 in 7.0 mi SSE 16.1 mph 21.9 mph N/A   Clear
10:53 PM 39.2 °F 30.5 °F 35.6 °F 87% 29.63 in 7.0 mi SSE 16.1 mph 20.7 mph N/A   Clear
11:13 PM 41.0 °F 33.5 °F 35.6 °F 81% 29.62 in 7.0 mi SSE 13.8 mph 24.2 mph N/A   Clear
11:34 PM 41.0 °F 32.8 °F 35.6 °F 81% 29.61 in 7.0 mi SSE 16.1 mph 25.3 mph N/A   Clear
11:53 PM 41.0 °F 32.5 °F 35.6 °F 81% 29.61 in 7.0 mi SSE 17.3 mph 23.0 mph N/A   Clear